Terminal Aerodrome Forecast
Issued by NWS Lake Charles, LA

Home | Current Version | Previous Version | Text Only | Print | Product List | Glossary On
Versions: 1 2 3 4 5 6 7 8 9 10 11 12 13 14 15 16 17 18 19
000
FTUS44 KLCH 200600 AAA
TAFLCH
TAF AMD
KLCH 200649Z 2007/2106 VRB04KT 6SM BR SCT250
      TEMPO 2008/2012 3SM BR
     FM201400 12007KT P6SM FEW060 SCT250=

USA.gov is the U.S. government's official web portal to all federal, state and local government web resources and services.